This is the latest recevied weather packets stored in our database for station/object SM6LNJ-13. If no packets are shown the sender has not sent any weather packets the latest 10 day(s).
| Time | Temp. | Humidity | Pressure | Rain* | Wind** | Luminosity | Snow |
|---|---|---|---|---|---|---|---|
| 1777735672 | 20.56° C | 50% | 1443.7 hPa | 0 mm | - | - | - |
| 1777735313 | 20° C | 49% | 1442.9 hPa | 0 mm | - | - | - |
| 1777735192 | 20.56° C | 49% | 1443.9 hPa | 0 mm | - | - | - |
| 1777735073 | 20° C | 49% | 1443.2 hPa | 0 mm | - | - | - |
| 1777734952 | 20.56° C | 49% | 1444.3 hPa | 0 mm | - | - | - |
| 1777734713 | 21.11° C | 49% | 1445.3 hPa | 0 mm | - | - | - |
| 1777734592 | 21.11° C | 50% | 1445.1 hPa | 0 mm | - | - | - |
| 1777734472 | 21.11° C | 49% | 1444.9 hPa | 0 mm | - | - | - |
| 1777734352 | 20.56° C | 49% | 1444.5 hPa | 0 mm | - | - | - |
| 1777734112 | 21.67° C | 47% | 1446.2 hPa | 0 mm | - | - | - |
| 1777733872 | 21.67° C | 46% | 1447.3 hPa | 0 mm | - | - | - |
| 1777733512 | 21.67° C | 47% | 1446.9 hPa | 0 mm | - | - | - |
| 1777733392 | 21.67° C | 48% | 1446.7 hPa | 0 mm | - | - | - |
| 1777733273 | 21.67° C | 47% | 1446.5 hPa | 0 mm | - | - | - |
| 1777733153 | 21.11° C | 47% | 1446 hPa | 0 mm | - | - | - |
| 1777732912 | 21.11° C | 45% | 1445.4 hPa | 0 mm | - | - | - |
| 1777732672 | 20.56° C | 45% | 1444.7 hPa | 0 mm | - | - | - |
| 1777732552 | 21.11° C | 45% | 1444.9 hPa | 0 mm | - | - | - |
| 1777732192 | 23.33° C | 42% | 1450.8 hPa | 0 mm | - | - | - |
| 1777732072 | 23.33° C | 42% | 1451.2 hPa | 0 mm | - | - | - |
| 1777703026 | 14.44° C | 69% | 1429.1 hPa | 0 mm | - | - | - |
| 1777700745 | 13.33° C | 73% | 1427.6 hPa | 0 mm | - | - | - |
| 1777700626 | 13.33° C | 74% | 1427.2 hPa | 0 mm | - | - | - |
| 1777700505 | 13.33° C | 75% | 1426.8 hPa | 0 mm | - | - | - |
| 1777700386 | 13.33° C | 76% | 1426.4 hPa | 0 mm | - | - | - |
* Rain latest hour (hover to see other rain measurements)
** Current wind speed in m/s (hover to see current wind gust speed)